Kearney, NE

11:28 PM CST on February 07, 2016 (GMT -0600)
Kearney Municipal

Weather History for KEAR - January, 2013

Change the Weather History Date:

Friday, January 25, 2013

  Actual Average Record
Temperature  
Mean Temperature 33 °F 25 °F  
Max Temperature 52 °F 36 °F 66 °F (2002)
Min Temperature 14 °F 13 °F -17 °F (1940)
Degree Days  
Heating Degree Days 32 40  
Month to date heating degree days 1013  
Since 1 July heating degree days 3656  
Cooling Degree Days 0 0  
Month to date cooling degree days 0  
Year to date cooling degree days 0  
Moisture  
Dew Point 21 °F    
Average Humidity 57    
Maximum Humidity 84    
Minimum Humidity 30    
Precipitation  
Precipitation 0.00 in - 0.34 in (1932)
Sea Level Pressure  
Sea Level Pressure 30.14 in    
Wind  
Wind Speed 7 mph (WSW)    
Max Wind Speed 10 mph    
Max Gust Speed -    
Visibility 10 miles    
Events      
T = Trace of Precipitation, MM = Missing Value Source: NWS Daily Summary

Daily Weather History Graph

Daily Weather History Graph

Search for Another Location

Airport or City:

Trip Planner

Search our weather history database for the weather conditions in past years. The results will help you decide how hot, cold, wet, or windy it might be!

Date:

Astronomy

Jan. 25, 2013 Rise Set
Actual Time 7:51 AM CST 5:45 PM CST
Civil Twilight 7:22 AM CST 6:14 PM CST
Nautical Twilight 6:49 AM CST 6:48 PM CST
Astronomical Twilight 6:16 AM CST 7:20 PM CST
Moon 4:44 PM CST (1/25) 6:32 AM CST (1/25)
Length of Visible Light 10h 52m
Length of Day
9h 53m
Waxing Gibbous, 98% of the Moon is Illuminated
Jan 25
Waxing Gibbous
Jan 26
Full
Feb 3
Last Quarter
Feb 10
New
Feb 17
First Quarter

Hourly Weather History & Observations

Time (CST) Temp. Windchill Dew Point Humidity Pressure Visibility Wind Dir Wind Speed Gust Speed Precip Events Conditions
12:15 AM 19.4 °F 12.8 °F 10.4 °F 68% 30.11 in 10.0 mi WSW 4.6 mph - N/A   Clear
12:35 AM 19.4 °F 14.3 °F 10.4 °F 68% 30.10 in 10.0 mi WSW 3.5 mph - N/A   Clear
12:55 AM 17.6 °F 12.3 °F 10.4 °F 73% 30.10 in 10.0 mi West 3.5 mph - N/A   Clear
1:15 AM 17.6 °F 12.3 °F 10.4 °F 73% 30.09 in 10.0 mi WSW 3.5 mph - N/A   Clear
1:35 AM 15.8 °F 10.2 °F 10.4 °F 79% 30.09 in 10.0 mi SSW 3.5 mph - N/A   Clear
1:55 AM 17.6 °F 12.3 °F 12.2 °F 79% 30.10 in 10.0 mi SW 3.5 mph - N/A   Clear
2:15 AM 17.6 °F 10.7 °F 10.4 °F 73% 30.11 in 10.0 mi WSW 4.6 mph - N/A   Clear
2:35 AM 17.6 °F 12.3 °F 12.2 °F 79% 30.11 in 10.0 mi West 3.5 mph - N/A   Clear
2:55 AM 14.0 °F 8.2 °F 8.6 °F 79% 30.11 in 10.0 mi WSW 3.5 mph - N/A   Clear
3:15 AM 17.6 °F 8.2 °F 10.4 °F 73% 30.11 in 10.0 mi WNW 6.9 mph - N/A   Clear
3:35 AM 17.6 °F 7.3 °F 17.6 °F 100% 30.11 in 10.0 mi West 8.1 mph - N/A   Clear
3:55 AM 17.6 °F 6.4 °F 12.2 °F 79% 30.11 in 10.0 mi WNW 9.2 mph - N/A   Clear
4:15 AM 17.6 °F 6.4 °F 14.0 °F 86% 30.12 in 10.0 mi WNW 9.2 mph - N/A   Clear
4:35 AM 19.4 °F 8.6 °F 15.8 °F 86% 30.11 in 10.0 mi West 9.2 mph - N/A   Clear
4:55 AM 19.4 °F 8.6 °F 15.8 °F 86% 30.11 in 10.0 mi West 9.2 mph - N/A   Clear
5:15 AM 21.2 °F 10.1 °F 17.6 °F 86% 30.11 in 10.0 mi West 10.4 mph - N/A   Clear
5:35 AM 21.2 °F 10.1 °F 17.6 °F 86% 30.11 in 10.0 mi West 10.4 mph - N/A   Clear
5:55 AM 23.0 °F 13.9 °F 17.6 °F 80% 30.12 in 10.0 mi West 8.1 mph - N/A   Clear
6:15 AM 24.8 °F 15.3 °F 17.6 °F 74% 30.13 in 10.0 mi West 9.2 mph - N/A   Clear
6:35 AM 24.8 °F 16.9 °F 19.4 °F 80% 30.14 in 10.0 mi West 6.9 mph - N/A   Clear
6:55 AM 24.8 °F 16.1 °F 19.4 °F 80% 30.15 in 10.0 mi West 8.1 mph - N/A   Clear
7:15 AM 24.8 °F 16.1 °F 19.4 °F 80% 30.15 in 10.0 mi West 8.1 mph - N/A   Clear
7:35 AM 24.8 °F 16.9 °F 19.4 °F 80% 30.15 in 10.0 mi West 6.9 mph - N/A   Clear
7:55 AM 26.6 °F 19.1 °F 19.4 °F 74% 30.15 in 10.0 mi WSW 6.9 mph - N/A   Clear
8:15 AM 26.6 °F 16.8 °F 19.4 °F 74% 30.15 in 10.0 mi West 10.4 mph - N/A   Clear
8:35 AM 26.6 °F 17.5 °F 19.4 °F 74% 30.15 in 10.0 mi West 9.2 mph - N/A   Clear
8:55 AM 28.4 °F 19.7 °F 21.2 °F 74% 30.15 in 10.0 mi West 9.2 mph - N/A   Clear
9:15 AM 30.2 °F 21.9 °F 23.0 °F 75% 30.17 in 10.0 mi West 9.2 mph - N/A   Clear
9:35 AM 35.6 °F 28.0 °F 24.8 °F 65% 30.19 in 10.0 mi West 10.4 mph - N/A   Clear
9:55 AM 35.6 °F 28.6 °F 24.8 °F 65% 30.20 in 10.0 mi West 9.2 mph - N/A   Clear
10:15 AM 37.4 °F 30.3 °F 24.8 °F 60% 30.20 in 10.0 mi West 10.4 mph - N/A   Clear
10:35 AM 39.2 °F 33.0 °F 24.8 °F 56% 30.20 in 10.0 mi NW 9.2 mph - N/A   Clear
10:55 AM 42.8 °F 38.0 °F 26.6 °F 53% 30.20 in 10.0 mi WNW 8.1 mph - N/A   Clear
11:15 AM 44.6 °F 40.7 °F 26.6 °F 49% 30.19 in 10.0 mi WNW 6.9 mph - N/A   Clear
11:35 AM 46.4 °F 42.9 °F 26.6 °F 46% 30.19 in 10.0 mi West 6.9 mph - N/A   Clear
11:55 AM 48.2 °F - 24.8 °F 40% 30.19 in 10.0 mi WNW 5.8 mph - N/A   Clear
12:15 PM 48.2 °F - 26.6 °F 43% 30.18 in 10.0 mi West 9.2 mph - N/A   Clear
12:35 PM 50.0 °F - 24.8 °F 37% 30.17 in 10.0 mi West 6.9 mph - N/A   Clear
12:55 PM 51.8 °F - 24.8 °F 35% 30.16 in 10.0 mi West 6.9 mph - N/A   Clear
1:15 PM 51.8 °F - 23.0 °F 33% 30.15 in 10.0 mi Calm Calm - N/A   Clear
1:35 PM 51.8 °F - 26.6 °F 38% 30.15 in 10.0 mi SSW 10.4 mph - N/A   Clear
1:55 PM 51.8 °F - 26.6 °F 38% 30.15 in 10.0 mi SW 10.4 mph - N/A   Clear
2:15 PM 51.8 °F - 21.2 °F 30% 30.14 in 10.0 mi WSW 9.2 mph - N/A   Clear
2:35 PM 51.8 °F - 23.0 °F 33% 30.14 in 10.0 mi SW 11.5 mph - N/A   Clear
2:55 PM 51.8 °F - 21.2 °F 30% 30.14 in 10.0 mi West 8.1 mph - N/A   Clear
3:15 PM 51.8 °F - 23.0 °F 33% 30.14 in 10.0 mi SW 11.5 mph - N/A   Clear
3:35 PM 50.0 °F - 21.2 °F 32% 30.13 in 10.0 mi SSW 9.2 mph - N/A   Clear
3:55 PM 48.2 °F - 24.8 °F 40% 30.13 in 10.0 mi SSW 6.9 mph - N/A   Clear
4:15 PM 48.2 °F - 24.8 °F 40% 30.13 in 10.0 mi SSW 8.1 mph - N/A   Clear
4:35 PM 46.4 °F 42.9 °F 26.6 °F 46% 30.14 in 10.0 mi SSW 6.9 mph - N/A   Clear
4:55 PM 42.8 °F 37.5 °F 26.6 °F 53% 30.13 in 10.0 mi South 9.2 mph - N/A   Clear
5:15 PM 42.8 °F 38.0 °F 26.6 °F 53% 30.14 in 10.0 mi SSW 8.1 mph - N/A   Clear
5:35 PM 39.2 °F 33.6 °F 26.6 °F 61% 30.13 in 10.0 mi South 8.1 mph - N/A   Clear
5:55 PM 37.4 °F 31.4 °F 24.8 °F 60% 30.14 in 10.0 mi South 8.1 mph - N/A   Clear
6:15 PM 37.4 °F 33.8 °F 24.8 °F 60% 30.14 in 10.0 mi South 4.6 mph - N/A   Clear
6:35 PM 35.6 °F 32.8 °F 26.6 °F 70% 30.15 in 10.0 mi SSW 3.5 mph - N/A   Clear
6:55 PM 35.6 °F 32.8 °F 26.6 °F 70% 30.15 in 10.0 mi SSW 3.5 mph - N/A   Clear
7:15 PM 33.8 °F 25.8 °F 24.8 °F 70% 30.15 in 10.0 mi South 10.4 mph - N/A   Clear
7:35 PM 32.0 °F 24.8 °F 24.8 °F 75% 30.15 in 10.0 mi South 8.1 mph - N/A   Clear
7:55 PM 32.0 °F 25.6 °F 24.8 °F 75% 30.15 in 10.0 mi South 6.9 mph - N/A   Clear
8:15 PM 30.2 °F 25.4 °F 23.0 °F 75% 30.15 in 10.0 mi South 4.6 mph - N/A   Clear
8:35 PM 32.0 °F 26.4 °F 24.8 °F 75% 30.14 in 10.0 mi South 5.8 mph - N/A   Clear
8:55 PM 33.8 °F 27.7 °F 24.8 °F 70% 30.14 in 10.0 mi South 6.9 mph - N/A   Clear
9:15 PM 33.8 °F 28.6 °F 26.6 °F 75% 30.13 in 10.0 mi SSW 5.8 mph - N/A   Clear
9:35 PM 33.8 °F 28.6 °F 24.8 °F 70% 30.13 in 10.0 mi South 5.8 mph - N/A   Clear
9:55 PM 33.8 °F 26.4 °F 24.8 °F 70% 30.13 in 10.0 mi SSW 9.2 mph - N/A   Clear
10:15 PM 30.2 °F 21.9 °F 24.8 °F 80% 30.14 in 10.0 mi SSW 9.2 mph - N/A   Clear
10:35 PM 35.6 °F 27.5 °F 26.6 °F 70% 30.14 in 10.0 mi SSW 11.5 mph - N/A   Clear
10:55 PM 35.6 °F 28.0 °F 24.8 °F 65% 30.14 in 10.0 mi SSW 10.4 mph - N/A   Clear
11:15 PM 37.4 °F 30.3 °F 24.8 °F 60% 30.14 in 10.0 mi SSW 10.4 mph - N/A   Clear
11:35 PM 35.6 °F 28.0 °F 24.8 °F 65% 30.14 in 10.0 mi SSW 10.4 mph - N/A   Clear
11:55 PM 35.6 °F 28.0 °F 24.8 °F 65% 30.14 in 10.0 mi SSW 10.4 mph - N/A   Clear